Weather History for KAIZ - April, 2014

Change the Weather History Date:

Monday, April 7, 2014

  Actual Average Record
Temperature  
Mean Temperature 52 °F -  
Max Temperature 62 °F - - ()
Min Temperature 42 °F - - ()
Degree Days  
Heating Degree Days 13    
Growing Degree Days 2 (Base 50)    
Moisture  
Dew Point 35 °F    
Average Humidity 58    
Maximum Humidity 87    
Minimum Humidity 27    
Precipitation  
Precipitation 0.52 in - - ()
Sea Level Pressure  
Sea Level Pressure 29.78 in    
Wind  
Wind Speed 5 mph (NW)    
Max Wind Speed 12 mph    
Max Gust Speed 17 mph    
Visibility 10 miles    
Events      
T = Trace of Precipitation, MM = Missing Value Source: NWS Daily Summary

Daily Weather History Graph

Daily Weather History Graph

Search for Another Location

Airport or City:

Trip Planner

Search our weather history database for the weather conditions in past years. The results will help you decide how hot, cold, wet, or windy it might be!

Date:

Astronomy

Apr. 07, 2014 Rise Set
Actual Time 6:46 AM CDT 7:38 PM CDT
Civil Twilight 6:19 AM CDT 8:05 PM CDT
Nautical Twilight 5:47 AM CDT 8:37 PM CDT
Astronomical Twilight 5:14 AM CDT 9:10 PM CDT
Moon 12:45 PM CDT (4/7) 2:13 AM CDT (4/7)
Length of Visible Light 13h 46m
Length of Day
12h 52m
First Quarter, 53% of the Moon is Illuminated
Apr 7
First Quarter
Apr 15
Full
Apr 22
Last Quarter
Apr 29
New
May 6
First Quarter

Hourly Weather History & Observations

Time (CDT) Temp. Windchill Dew Point Humidity Pressure Visibility Wind Dir Wind Speed Gust Speed Precip Events Conditions
12:15 AM 50.0 °F - 30.2 °F 47% 29.81 in 10.0 mi NE 5.8 mph - N/A   Overcast
12:35 AM 50.0 °F - 30.2 °F 47% 29.81 in 10.0 mi NE 4.6 mph - N/A   Overcast
12:55 AM 51.8 °F - 30.2 °F 44% 29.80 in 10.0 mi East 4.6 mph - N/A   Overcast
1:15 AM 50.0 °F - 30.2 °F 47% 29.80 in 10.0 mi East 5.8 mph - 0.01 in   Overcast
1:35 AM 50.0 °F - 32.0 °F 50% 29.81 in 10.0 mi North 4.6 mph - 0.04 in   Overcast
1:55 AM 51.8 °F - 33.8 °F 50% 29.81 in 10.0 mi Calm Calm - 0.06 in   Overcast
2:15 AM 48.2 °F - 35.6 °F 62% 29.81 in 10.0 mi NE 3.5 mph - N/A   Overcast
2:35 AM 46.4 °F - 37.4 °F 71% 29.82 in 8.0 mi Calm Calm - N/A   Overcast
2:55 AM 46.4 °F - 39.2 °F 76% 29.82 in 10.0 mi Calm Calm - N/A   Overcast
3:15 AM 44.6 °F 42.2 °F 39.2 °F 81% 29.81 in 10.0 mi North 4.6 mph - N/A   Overcast
3:35 AM 44.6 °F 43.1 °F 39.2 °F 81% 29.81 in 10.0 mi NNE 3.5 mph - N/A   Overcast
3:55 AM 44.6 °F 42.2 °F 39.2 °F 81% 29.79 in 10.0 mi NE 4.6 mph - N/A   Overcast
4:15 AM 44.6 °F 41.4 °F 39.2 °F 81% 29.78 in 10.0 mi East 5.8 mph - N/A   Overcast
4:35 AM 44.6 °F 40.7 °F 39.2 °F 81% 29.77 in 10.0 mi ESE 6.9 mph - 0.02 in   Overcast
4:55 AM 44.6 °F 41.4 °F 39.2 °F 81% 29.74 in 10.0 mi SE 5.8 mph - 0.08 in   Overcast
5:15 AM 44.6 °F - 39.2 °F 81% 29.75 in 10.0 mi Calm Calm - 0.03 in   Overcast
5:35 AM 44.6 °F - 39.2 °F 81% 29.76 in 10.0 mi Calm Calm - 0.04 in   Overcast
5:55 AM 44.6 °F - 39.2 °F 81% 29.76 in 9.0 mi Calm Calm - 0.06 in   Overcast
6:15 AM 42.8 °F - 39.2 °F 87% 29.75 in 8.0 mi Calm Calm - 0.02 in   Overcast
6:35 AM 42.8 °F 41.1 °F 39.2 °F 87% 29.76 in 10.0 mi West 3.5 mph - 0.02 in   Overcast
6:55 AM 44.6 °F - 39.2 °F 81% 29.77 in 10.0 mi Calm Calm - 0.02 in   Overcast
7:15 AM 44.6 °F 43.1 °F 39.2 °F 81% 29.77 in 10.0 mi West 3.5 mph - 0.01 in   Overcast
7:35 AM 44.6 °F - 39.2 °F 81% 29.77 in 10.0 mi Calm Calm - 0.01 in   Overcast
7:55 AM 44.6 °F 43.1 °F 39.2 °F 81% 29.78 in 10.0 mi West 3.5 mph - 0.01 in   Overcast
8:15 AM 44.6 °F 43.1 °F 39.2 °F 81% 29.78 in 10.0 mi West 3.5 mph - N/A   Overcast
8:35 AM 44.6 °F 42.2 °F 41.0 °F 87% 29.79 in 10.0 mi West 4.6 mph - N/A   Overcast
8:55 AM 44.6 °F 41.4 °F 41.0 °F 87% 29.78 in 10.0 mi West 5.8 mph - 0.02 in   Overcast
9:15 AM 44.6 °F 42.2 °F 41.0 °F 87% 29.78 in 10.0 mi West 4.6 mph - N/A   Overcast
9:35 AM 44.6 °F 40.7 °F 41.0 °F 87% 29.77 in 10.0 mi WNW 6.9 mph - N/A   Overcast
9:55 AM 46.4 °F 45.2 °F 41.0 °F 81% 29.77 in 10.0 mi WNW 3.5 mph - 0.03 in   Overcast
10:15 AM 46.4 °F 45.2 °F 41.0 °F 81% 29.78 in 10.0 mi NW 3.5 mph - 0.02 in   Scattered Clouds
10:35 AM 46.4 °F 42.4 °F 39.2 °F 76% 29.78 in 10.0 mi WNW 8.1 mph - 0.02 in   Clear
10:55 AM 48.2 °F - 39.2 °F 71% 29.78 in 10.0 mi WNW 9.2 mph - 0.02 in   Clear
11:15 AM 50.0 °F - 39.2 °F 66% 29.78 in 10.0 mi West 6.9 mph - N/A   Mostly Cloudy
11:35 AM 50.0 °F - 39.2 °F 66% 29.77 in 10.0 mi West 5.8 mph - 0.03 in   Scattered Clouds
11:55 AM 51.8 °F - 41.0 °F 67% 29.77 in 10.0 mi West 8.1 mph - 0.07 in   Clear
12:15 PM 51.8 °F - 39.2 °F 62% 29.77 in 10.0 mi WNW 11.5 mph - N/A   Clear
12:35 PM 53.6 °F - 39.2 °F 58% 29.77 in 10.0 mi West 10.4 mph - N/A   Partly Cloudy
12:55 PM 53.6 °F - 39.2 °F 58% 29.77 in 10.0 mi West 8.1 mph - N/A   Scattered Clouds
1:15 PM 55.4 °F - 39.2 °F 54% 29.76 in 10.0 mi WNW 6.9 mph - N/A   Scattered Clouds
1:35 PM 57.2 °F - 37.4 °F 48% 29.76 in 10.0 mi WSW 10.4 mph - 0.02 in   Scattered Clouds
1:55 PM 57.2 °F - 37.4 °F 48% 29.76 in 10.0 mi West 8.1 mph - 0.02 in   Partly Cloudy
2:15 PM 57.2 °F - 35.6 °F 44% 29.75 in 10.0 mi West 3.5 mph - N/A   Scattered Clouds
2:35 PM 59.0 °F - 35.6 °F 42% 29.74 in 10.0 mi WNW 10.4 mph 16.1 mph 0.02 in   Mostly Cloudy
3:15 PM 59.0 °F - 33.8 °F 39% 29.74 in 10.0 mi NW 10.4 mph 17.3 mph N/A   Partly Cloudy
3:35 PM 60.8 °F - 33.8 °F 36% 29.73 in 10.0 mi NNW 9.2 mph - N/A   Clear
3:55 PM 60.8 °F - 33.8 °F 36% 29.73 in 10.0 mi NW 10.4 mph 16.1 mph N/A   Clear
4:15 PM 60.8 °F - 32.0 °F 34% 29.73 in 10.0 mi North 6.9 mph - N/A   Clear
4:35 PM 62.6 °F - 33.8 °F 34% 29.73 in 10.0 mi North 8.1 mph 16.1 mph N/A   Clear
4:55 PM 60.8 °F - 32.0 °F 34% 29.73 in 10.0 mi NW 10.4 mph 16.1 mph N/A   Clear
5:15 PM 62.6 °F - 30.2 °F 30% 29.73 in 10.0 mi North 5.8 mph 16.1 mph N/A   Clear
5:35 PM 60.8 °F - 28.4 °F 29% 29.74 in 10.0 mi North 5.8 mph - N/A   Clear
5:55 PM 62.6 °F - 30.2 °F 30% 29.74 in 10.0 mi NNW 8.1 mph - N/A   Clear
6:15 PM 62.6 °F - 28.4 °F 27% 29.75 in 10.0 mi NW 6.9 mph - N/A   Clear
6:35 PM 60.8 °F - 26.6 °F 27% 29.75 in 10.0 mi North 6.9 mph - N/A   Clear
6:55 PM 60.8 °F - 26.6 °F 27% 29.76 in 10.0 mi NNW 5.8 mph - N/A   Clear
7:15 PM 59.0 °F - 28.4 °F 31% 29.76 in 10.0 mi NNW 5.8 mph - N/A   Clear
7:35 PM 57.2 °F - 28.4 °F 33% 29.77 in 10.0 mi Calm Calm - N/A   Clear
7:55 PM 55.4 °F - 28.4 °F 36% 29.78 in 10.0 mi Calm Calm - 0.06 in   Clear
8:15 PM 53.6 °F - 28.4 °F 38% 29.78 in 10.0 mi Calm Calm - 0.04 in   Clear
8:35 PM 53.6 °F - 30.2 °F 41% 29.79 in 10.0 mi Calm Calm - 0.04 in   Partly Cloudy
8:55 PM 51.8 °F - 30.2 °F 44% 29.80 in 10.0 mi Calm Calm - 0.04 in   Mostly Cloudy
9:15 PM 50.0 °F - 32.0 °F 50% 29.81 in 10.0 mi Calm Calm - N/A   Overcast
9:35 PM 48.2 °F - 32.0 °F 54% 29.81 in 10.0 mi Calm Calm - N/A   Overcast
9:55 PM 51.8 °F - 30.2 °F 44% 29.82 in 10.0 mi Calm Calm - N/A   Overcast
10:15 PM 48.2 °F - 30.2 °F 50% 29.82 in 10.0 mi Calm Calm - 0.01 in   Overcast
10:35 PM 50.0 °F - 30.2 °F 47% 29.82 in 10.0 mi West 3.5 mph - 0.01 in   Overcast
10:55 PM 50.0 °F - 32.0 °F 50% 29.82 in 10.0 mi West 3.5 mph - 0.01 in   Overcast
11:15 PM 51.8 °F - 32.0 °F 47% 29.82 in 10.0 mi West 3.5 mph - N/A   Overcast
11:35 PM 51.8 °F - 30.2 °F 44% 29.82 in 10.0 mi WSW 4.6 mph - N/A   Overcast
11:55 PM 48.2 °F - 33.8 °F 58% 29.82 in 10.0 mi West 3.5 mph - N/A   Overcast